Location: Aix-en-Ergny
(50.5839°N, 1.9996°E)
Time: 09:36:33
(UTC+00:00)

CENTAUR R/B - Pass Details

Date: 23 October 2019
Orbit: 779 x 1409 km, 63.4° (Epoch: 19 November)

Event Time Altitude Azimuth Distance (km) Brightness Sun altitude
Exits shadow 03:11:17 74° 245° (WSW) 1,390 3.0 -31.3°
Maximum altitude 03:11:29 74° 232° (SW) 1,390 3.0 -31.3°
Drops below altitude 10° 03:20:07 10° 149° (SSE) 3,484 5.5 -30.0°
Sets 03:23:05 0° 148° (SSE) 4,466 6.1 -29.6°
